{"data":{"norad_id":67159,"intl_designator":"2025-301AC","name":"KUIPER-00265","alt_names":[],"object_type":"PAYLOAD","status":"ACTIVE","operator":null,"country":"US","launch_date":"2025-12-16","launch_site_code":"AFETR","launch_vehicle":null,"mission":null,"orbit_class":"UNKNOWN","rcs_meters":null,"size_class":null,"mass_kg":null,"dimensions":null,"purposes":[],"wikipedia_slug":null,"has_3d_model":false,"image_url":null,"decayed_at":null,"tle_current":{"epoch":"2026-05-25T04:22:49.772064Z","epoch_age_seconds":53168,"freshness":"FRESH","line1":"1 67159U 25301AC  26145.18252051  .00000410  00000+0  82730-4 0  9999","line2":"2 67159  51.9007 107.3784 0000696  71.0739 289.0299 14.79931198 24816","mean_motion":14.79931198,"eccentricity":6.96e-5,"inclination_deg":51.9007,"raan_deg":107.3784,"arg_perigee_deg":71.0739,"mean_anomaly_deg":289.0299,"bstar":8.273e-5,"rev_number":2481,"period_min":97.301820648557,"perigee_km":629.05358323732,"apogee_km":630.02905205914,"semimajor_km":7007.6783176482,"source":"CELESTRAK","updated_at":"2026-05-25T13:38:06.780339Z"}}}